DW7859 Edgewater MD US current weather conditions

sailwx.info

Wind from 229 at 1 knots gusting 6

Air temperature 8.3° C
Dewpoint 2.6° C

Last reported at 2019-Dec-15 14:58 UTC.
Time now 2019-Dec-15 16:06 UTC

Location: N 38°55' W 076°34'.
View on Google Maps.

See reports from other nearby stations

  
Tides and Currents Weather Stations Pressure Air Temp Water Temp Dewpoint Dewpoint Depression Visibility Wind Speed Wind Dir Waves Ship Positions
date/time (UTC)wind fromknots sea level pressurealtimeterstation pressurevisibilityair tempwater tempwave heightnotes
2019-Dec-15 14:58 229 1 gusting 6 8.3
2019-Dec-15 14:48 260 1 gusting 5 7.8
2019-Dec-15 14:38 245 1 gusting 6 7.8
2019-Dec-15 14:28 216 1 gusting 6 7.2
2019-Dec-15 14:18 238 1 gusting 6 7.2
2019-Dec-15 14:08 235 1 gusting 3 7.2
2019-Dec-15 13:58 251 2 gusting 5 6.7
2019-Dec-15 13:48 228 3 gusting 6 6.7
2019-Dec-15 13:38 238 2 gusting 5 6.1
2019-Dec-15 13:28 235 2 gusting 4 5.6
2019-Dec-15 13:18 243 1 gusting 5 5.6
2019-Dec-15 13:08 240 2 gusting 5 5.6
2019-Dec-15 12:58 231 1 gusting 3 5.6
2019-Dec-15 12:48 250 1 gusting 2 5.6
2019-Dec-15 12:38 237 1 gusting 3 5.6
2019-Dec-15 12:28 246 1 gusting 3 5.6
2019-Dec-15 12:18 248 1 gusting 2 5.6
2019-Dec-15 12:08 228 1 gusting 3 5.6
2019-Dec-15 11:58 208 0 gusting 3 5.6
2019-Dec-15 11:48 280 1 gusting 1 6.1
2019-Dec-15 11:38 192 0 gusting 1 6.1
2019-Dec-15 11:28 232 0 gusting 2 6.1
2019-Dec-15 11:18 252 0 gusting 2 5.6
2019-Dec-15 11:08 249 5.6
2019-Dec-15 10:58 249 5.6
2019-Dec-15 10:48 249 5.6
2019-Dec-15 10:38 249 0 gusting 1 6.1
2019-Dec-15 10:28 249 6.1
2019-Dec-15 10:18 249 0 gusting 2 6.1
2019-Dec-15 10:08 252 0 gusting 2 6.1
2019-Dec-15 09:58 228 1 gusting 3 6.1
2019-Dec-15 09:48 249 0 gusting 3 6.1
2019-Dec-15 09:38 259 1 gusting 3 6.1
2019-Dec-15 09:28 242 0 gusting 2 6.1
2019-Dec-15 09:18 247 0 gusting 2 6.1
2019-Dec-15 09:08 248 0 gusting 3 5.6
2019-Dec-15 08:58 243 1 gusting 2 5.6
2019-Dec-15 08:48 209 0 gusting 1 5.6
2019-Dec-15 08:38 207 5.6
2019-Dec-15 08:28 207 0 gusting 1 5.6
2019-Dec-15 08:18 207 0 gusting 1 5.6
2019-Dec-15 08:08 207 0 gusting 1 6.1
2019-Dec-15 07:58 206 0 gusting 2 6.1
2019-Dec-15 07:48 232 1 gusting 2 6.1
2019-Dec-15 07:38 244 0 gusting 3 6.1
2019-Dec-15 07:28 274 0 gusting 3 6.1
2019-Dec-15 07:18 239 1 gusting 2 6.1
2019-Dec-15 07:08 236 0 gusting 1 6.1
2019-Dec-15 06:58 236 1 gusting 2 6.1
2019-Dec-15 06:48 236 0 gusting 2 6.1
2019-Dec-15 06:38 265 0 gusting 3 6.1
2019-Dec-15 06:28 269 1 gusting 5 6.7
2019-Dec-15 06:18 255 1 gusting 6 6.7
2019-Dec-15 06:08 255 2 gusting 6 6.1
2019-Dec-15 05:58 251 1 gusting 5 6.1
2019-Dec-15 05:48 256 2 gusting 6 6.1
2019-Dec-15 05:38 274 2 gusting 6 6.1
2019-Dec-15 05:27 232 1 gusting 8 6.1
2019-Dec-15 05:17 249 1 gusting 8 6.1
2019-Dec-15 05:07 227 0 gusting 6 6.7
2019-Dec-15 04:57 256 1 gusting 6 6.7
2019-Dec-15 04:47 265 1 gusting 6 6.7
2019-Dec-15 04:37 274 2 gusting 5 6.7
2019-Dec-15 04:27 300 1 gusting 6 6.7
2019-Dec-15 04:17 260 2 gusting 8 6.7
2019-Dec-15 03:57 235 1 gusting 6 6.7
2019-Dec-15 03:47 257 1 gusting 6 6.7
2019-Dec-15 03:37 273 2 gusting 4 6.7
2019-Dec-15 03:27 286 1 gusting 7 6.7
2019-Dec-15 03:17 256 2 gusting 7 7.2
2019-Dec-15 03:07 258 3 gusting 6 7.2
2019-Dec-15 02:57 276 2 gusting 6 6.7
2019-Dec-15 02:47 285 1 gusting 10 6.7
2019-Dec-15 02:37 249 2 gusting 10 7.2
2019-Dec-15 02:27 276 1 gusting 6 7.2
2019-Dec-15 02:17 271 2 gusting 6 7.2
2019-Dec-15 02:07 301 2 gusting 6 7.8
2019-Dec-15 01:57 265 1 gusting 8 7.8
2019-Dec-15 01:47 250 3 gusting 8 7.8
2019-Dec-15 01:37 281 1 gusting 8 7.8
2019-Dec-15 01:27 293 1 gusting 7 7.8
2019-Dec-15 01:17 262 1 gusting 8 7.8
2019-Dec-15 01:07 272 3 gusting 8 8.3
2019-Dec-15 00:57 247 3 gusting 8 8.3
2019-Dec-15 00:47 274 1 gusting 7 8.3
2019-Dec-15 00:37 261 2 gusting 8 8.3
2019-Dec-15 00:27 248 3 gusting 8 8.3
2019-Dec-15 00:17 262 2 gusting 8 8.3
2019-Dec-15 00:07 277 2 gusting 10 8.9
2019-Dec-14 23:57 296 2 gusting 14 8.9
2019-Dec-14 23:47 254 3 gusting 14 8.9
2019-Dec-14 23:37 264 2 gusting 7 8.9
2019-Dec-14 23:27 266 2 gusting 11 9.4
2019-Dec-14 23:17 276 2 gusting 11 9.4
2019-Dec-14 23:07 259 1 gusting 8 9.4
2019-Dec-14 22:57 265 2 gusting 7 8.9
2019-Dec-14 22:47 273 2 gusting 7 8.9
2019-Dec-14 22:37 226 1 gusting 4 8.9
2019-Dec-14 22:27 252 0 gusting 3 8.9
2019-Dec-14 22:17 241 0 gusting 3 8.9
2019-Dec-14 22:07 237 1 gusting 3 8.9
2019-Dec-14 21:57 258 0 gusting 5 8.9
2019-Dec-14 21:47 238 0 gusting 5 8.9
2019-Dec-14 21:37 230 1 gusting 4 8.9
2019-Dec-14 21:27 204 1 gusting 3 8.9
2019-Dec-14 21:07 254 1 gusting 4 8.9
2019-Dec-14 20:57 223 0 gusting 3 8.9
2019-Dec-14 20:47 248 1 gusting 3 8.9
2019-Dec-14 20:37 247 0 gusting 3 8.9
2019-Dec-14 20:27 231 1 gusting 4 8.9
2019-Dec-14 20:17 230 1 gusting 4 8.9
2019-Dec-14 20:07 223 1 gusting 4 8.9
2019-Dec-14 19:57 226 0 gusting 2 8.9
2019-Dec-14 19:47 265 1 gusting 4 8.9
2019-Dec-14 19:37 357 0 gusting 4 8.9
2019-Dec-14 19:27 281 1 gusting 6 8.9
2019-Dec-14 19:17 263 1 gusting 6 8.3
2019-Dec-14 19:07 266 1 gusting 7 8.3
2019-Dec-14 18:57 300 0 gusting 7 8.3
2019-Dec-14 18:47 281 1 gusting 4 8.3
2019-Dec-14 18:37 355 0 gusting 4 7.8
2019-Dec-14 18:27 236 1 gusting 4 7.8
2019-Dec-14 18:17 251 2 gusting 3 7.8
2019-Dec-14 18:07 234 1 gusting 3 7.8
2019-Dec-14 17:57 248 0 gusting 6 7.8
2019-Dec-14 17:47 249 1 gusting 6 7.8
2019-Dec-14 17:37 234 2 gusting 6 7.8
2019-Dec-14 17:27 239 2 gusting 5 8.3
2019-Dec-14 17:17 258 0 gusting 2 8.9
2019-Dec-14 17:07 271 0 gusting 2 8.9
2019-Dec-14 16:57 277 0 gusting 2 9.4
2019-Dec-14 16:47 214 1 gusting 2 8.9
2019-Dec-14 16:37 193 0 gusting 1 8.9
2019-Dec-14 16:27 193 0 gusting 0 8.9
2019-Dec-14 16:17 193 0 gusting 2 8.9
2019-Dec-14 16:07 193 0 gusting 2 8.9
2019-Dec-14 15:57 013 0 gusting 1 8.9
2019-Dec-14 15:47 013 0 gusting 0 8.9
2019-Dec-14 15:36 012 8.9
2019-Dec-14 15:26 012 8.9
2019-Dec-14 15:16 012 8.3
2019-Dec-14 15:06 013 8.3
2019-Dec-14 14:56 013 8.3
2019-Dec-14 14:46 013 8.3
2019-Dec-14 14:36 013 0 gusting 0 8.3
2019-Dec-14 14:26 270 8.3
2019-Dec-14 14:16 270 7.8
2019-Dec-14 14:06 270 7.8
2019-Dec-14 13:56 270 7.8
2019-Dec-14 13:46 270 7.8
2019-Dec-14 13:36 270 0 gusting 0 7.8
2019-Dec-14 13:26 270 7.8
2019-Dec-14 13:16 270 0 gusting 1 7.8
2019-Dec-14 13:06 270 7.8
2019-Dec-14 12:56 270 0 gusting 0 7.8
2019-Dec-14 12:46 270 0 gusting 0 7.8
2019-Dec-14 12:36 270 0 gusting 1 7.8
2019-Dec-14 12:26 270 7.8
2019-Dec-14 12:16 270 0 gusting 1 7.8
2019-Dec-14 12:06 270 0 gusting 0 7.8
2019-Dec-14 11:56 270 7.8
2019-Dec-14 11:46 270 7.8
2019-Dec-14 11:36 270 0 gusting 1 7.8
2019-Dec-14 11:26 269 7.8
2019-Dec-14 10:56 294 0 gusting 1 7.8
2019-Dec-14 10:46 294 0 gusting 1 7.8
2019-Dec-14 10:36 293 0 gusting 1 7.8
2019-Dec-14 10:26 293 0 gusting 1 7.8
2019-Dec-14 10:16 293 0 gusting 1 7.8
2019-Dec-14 10:06 293 8.3
2019-Dec-14 09:56 293 8.3
2019-Dec-14 09:46 293 8.3
2019-Dec-14 09:36 293 8.3
2019-Dec-14 09:26 293 8.3
2019-Dec-14 08:46 342 8.3
2019-Dec-14 08:36 342 8.3
2019-Dec-14 08:26 272 8.3
2019-Dec-14 08:16 270 8.3
2019-Dec-14 08:06 338 8.3
2019-Dec-14 07:56 337 0 gusting 1 8.3
2019-Dec-14 07:46 020 0 gusting 1 8.3
2019-Dec-14 07:36 068 0 gusting 2 8.3
2019-Dec-14 07:26 068 0 gusting 2 8.3
2019-Dec-14 07:16 261 0 gusting 2 8.3
2019-Dec-14 07:06 300 0 gusting 2 8.9
2019-Dec-14 06:56 323 0 gusting 0 8.9
2019-Dec-14 06:46 323 0 gusting 0 8.3
2019-Dec-14 06:36 323 8.3
2019-Dec-14 06:26 323 8.3
2019-Dec-14 06:16 323 8.3
2019-Dec-14 06:06 323 0 gusting 1 8.3
2019-Dec-14 05:56 332 0 gusting 1 8.3
2019-Dec-14 05:46 332 0 gusting 0 8.3
2019-Dec-14 05:36 332 0 gusting 0 8.3
2019-Dec-14 05:26 332 8.3
2019-Dec-14 05:16 332 8.3
2019-Dec-14 05:06 332 8.3
2019-Dec-14 04:56 332 8.3
2019-Dec-14 04:46 332 7.8
2019-Dec-14 04:36 332 0 gusting 1 7.8
2019-Dec-14 04:26 333 0 gusting 1 7.8
2019-Dec-14 04:16 333 0 gusting 0 7.8
2019-Dec-14 04:06 333 0 gusting 0 7.8
2019-Dec-14 03:56 333 7.2
2019-Dec-14 03:46 333 0 gusting 1 7.2
2019-Dec-14 03:36 336 7.2
2019-Dec-14 03:26 336 0 gusting 1 7.2
2019-Dec-14 03:16 337 7.2
2019-Dec-14 03:06 337 6.7
2019-Dec-14 02:56 337 0 gusting 0 6.7
2019-Dec-14 02:46 337 0 gusting 1 6.7
2019-Dec-14 02:36 337 6.7
2019-Dec-14 02:26 337 6.7
2019-Dec-14 02:16 337 0 gusting 1 6.7
2019-Dec-14 02:06 337 0 gusting 1 6.7
2019-Dec-14 01:56 337 6.1
2019-Dec-14 01:46 349 0 gusting 1 6.1
2019-Dec-14 01:36 046 0 gusting 0 6.1
2019-Dec-14 01:26 046 6.1
2019-Dec-14 01:15 046 0 gusting 0 6.1
2019-Dec-14 01:05 044 6.1
2019-Dec-14 00:55 044 0 gusting 1 5.6
2019-Dec-14 00:45 048 5.6
2019-Dec-14 00:35 048 0 gusting 0 5.6
2019-Dec-14 00:25 048 5.6
2019-Dec-14 00:15 048 5.6
2019-Dec-13 23:54 049 0 gusting 1 5.6
2019-Dec-13 23:44 041 0 gusting 1 5.6
2019-Dec-13 23:34 041 5.6
2019-Dec-13 23:24 042 5.0
2019-Dec-13 23:14 042 5.0
2019-Dec-13 23:04 042 5.0
2019-Dec-13 22:54 042 5.0
2019-Dec-13 22:44 042 5.0
2019-Dec-13 22:34 042 5.0
2019-Dec-13 22:24 042 5.0
2019-Dec-13 22:14 042 5.0
2019-Dec-13 22:04 042 5.0
2019-Dec-13 21:54 042 5.0
2019-Dec-13 21:44 042 5.0
2019-Dec-13 21:34 042 5.0
2019-Dec-13 21:24 042 5.0
2019-Dec-13 21:14 042 5.0
2019-Dec-13 21:04 042 5.0
2019-Dec-13 20:54 042 5.0
2019-Dec-13 20:44 042 4.4
2019-Dec-13 20:34 043 4.4
2019-Dec-13 20:24 043 4.4
2019-Dec-13 20:14 043 4.4
2019-Dec-13 20:04 043 0 gusting 2 4.4
2019-Dec-13 19:54 045 0 gusting 3 4.4
2019-Dec-13 19:44 069 0 gusting 3 4.4
2019-Dec-13 19:34 052 0 gusting 2 3.9
2019-Dec-13 19:24 059 3.9
2019-Dec-13 19:14 063 3.9
2019-Dec-13 19:04 300 3.9
2019-Dec-13 18:54 300 3.3
2019-Dec-13 18:44 300 3.3
2019-Dec-13 18:34 300 3.3
2019-Dec-13 18:24 300 3.3
2019-Dec-13 18:14 301 2.8
2019-Dec-13 18:04 301 2.8
2019-Dec-13 17:54 301 2.8
2019-Dec-13 17:44 301 2.8
2019-Dec-13 17:34 301 2.8
2019-Dec-13 17:24 297 2.2
2019-Dec-13 17:14 297 2.2
2019-Dec-13 17:04 297 2.2
2019-Dec-13 16:53 297 2.2
2019-Dec-13 16:43 297 2.2
2019-Dec-13 16:33 297 2.2
2019-Dec-13 16:23 296 2.2
2019-Dec-13 16:13 296 1.7
2019-Dec-13 16:03 296 1.7